Hourly Data Report for February 08, 2021

KUGAARUK CLIMATE
NUNAVUT
Current Station Operator: ECCC - MSC

68°32'15.060" N
89°47'47.020" W
15.80 m
2303094
71407
NBB

Download Data

Hourly Data (February 2021)
Hourly Data Report for February 8, 2021
TIME
LST
Temp Definition
°C
Dew Point Definition
°C
Rel Hum Definition
%
Precip. Amount Definition
mm

Wind Dir Definition
10's deg

Wind Spd Definition
km/h
Visibility Definition
km
Stn Press Definition
kPa
Hmdx Definition


Wind Chill Definition


Weather Definition


00:00 -11.5 -13.3 86 0.2 4 17   102.11   -19 LegendNANA
01:00 -12.8 -14.3 88 0.0 7 7   102.13   -17 LegendNANA
02:00 -14.0 -15.8 86 0.0 34 1   102.14   -15 LegendNANA
03:00 -13.9 -16.1 83 0.0 9 18   102.14   -22 LegendNANA
04:00 -12.7 -15.0 83 0.0 6 15   102.23   -20 LegendNANA
05:00 -14.1 -16.5 82 0.0 7 13   102.25   -21 LegendNANA
06:00 -13.6 -15.8 83 0.0 6 10   102.29   -20 LegendNANA
07:00 -11.5 -13.7 83 0.0 2 18   102.32   -19 LegendNANA
08:00 -11.9 -14.0 84 0.0 5 16   102.37   -19 LegendNANA
09:00 -12.4 -14.5 84 0.0 8 14   102.40   -19 LegendNANA
10:00 -12.6 -14.6 85 0.0 9 12   102.43   -19 LegendNANA
11:00 -13.8 -16.0 83 0.0 4 14   102.44   -21 LegendNANA
12:00 -15.5 -17.8 82 0.0 6 13   102.45   -23 LegendNANA
13:00 -14.6 -16.8 83 0.0 2 21   102.46   -24 LegendNANA
14:00 -14.4 -16.2 86 0.0 2 22   102.46   -24 LegendNANA
15:00 -13.8 -15.6 86 0.0 5 17   102.44   -22 LegendNANA
16:00 -13.3 -15.6 82 0.0 4 24   102.47   -23 LegendNANA
17:00 -14.5 -17.2 80 0.0 4 18   102.49   -23 LegendNANA
18:00 -13.9 -16.7 80 0.0 7 18   102.47   -22 LegendNANA
19:00 -13.2 -16.5 76 0.0 2 24   102.50   -23 LegendNANA
20:00 -14.8 -17.3 82 0.0 4 12   102.51   -22 LegendNANA
21:00 -16.0 -18.4 82 0.0 8 15   102.54   -24 LegendNANA
22:00 -17.5 -20.2 80 0.0 6 18   102.57   -27 LegendNANA
23:00 -16.1 -18.8 79 0.0 5 13   102.60   -24 LegendNANA

Notes on Data Quality.

Legend

  • E = Estimated
  • M = Missing
  • NA = Not Available*
  • [empty] = Indicates an unobserved value
Date modified: